Hourly Weather Bolshie Prudischi

Today, 20 June, Sunday

Time Temperature Precipitation Wind Pressure Humidity
00:00 +17°C° 0 mm 2 mps 758 mmHg 84%
01:00 +18°C° 0 mm 1 mps 758 mmHg 86%
02:00 +16°C° 0 mm 1 mps 758 mmHg 87%
03:00 +16°C° 0 mm 1 mps 758 mmHg 88%
04:00 +18°C° 0 mm 1 mps 758 mmHg 86%
05:00 +19°C° 0 mm 1 mps 758 mmHg 85%
06:00 +20°C° 0 mm 1 mps 758 mmHg 83%
07:00 +22°C° 0 mm 1 mps 758 mmHg 78%
08:00 +23°C° 0 mm 1 mps 758 mmHg 73%
09:00 +25°C° 0 mm 1 mps 758 mmHg 69%
10:00 +26°C° 0 mm 1 mps 758 mmHg 64%
11:00 +27°C° 0 mm 1 mps 758 mmHg 60%
12:00 +28°C° 0 mm 1 mps 758 mmHg 56%
13:00 +28°C° 0 mm 1 mps 758 mmHg 54%
14:00 +29°C° 0 mm 1 mps 757 mmHg 53%
15:00 +29°C° 0 mm 1 mps 757 mmHg 52%
16:00 +29°C° 0 mm 1 mps 757 mmHg 57%
17:00 +29°C° 0 mm 1 mps 757 mmHg 62%
18:00 +28°C° 0 mm 1 mps 756 mmHg 67%
19:00 +26°C° 0 mm 1 mps 756 mmHg 71%
20:00 +24°C° 0 mm 1 mps 756 mmHg 75%
21:00 +22°C° 0 mm 1 mps 756 mmHg 80%
22:00 +22°C° 0 mm 1 mps 756 mmHg 82%
23:00 +21°C° 0 mm 1 mps 757 mmHg 83%

Tomorrow, 21 June, Monday

Time Temperature Precipitation Wind Pressure Humidity
00:00 +21°C° 0 mm 1 mps 757 mmHg 85%
01:00 +20°C° 0 mm 1 mps 757 mmHg 86%
02:00 +18°C° 0 mm 0 mps 757 mmHg 87%
03:00 +18°C° 0 mm 0 mps 757 mmHg 87%
04:00 +19°C° 0 mm 0 mps 757 mmHg 86%
05:00 +19°C° 0 mm 0 mps 757 mmHg 84%
06:00 +20°C° 0 mm 0 mps 757 mmHg 83%
07:00 +24°C° 0 mm 1 mps 757 mmHg 79%
08:00 +25°C° 0 mm 1 mps 757 mmHg 75%
09:00 +26°C° 0 mm 1 mps 757 mmHg 71%
10:00 +27°C° 0 mm 1 mps 757 mmHg 67%
11:00 +28°C° 0 mm 1 mps 757 mmHg 63%
12:00 +29°C° 0 mm 1 mps 757 mmHg 59%
13:00 +30°C° 0 mm 1 mps 757 mmHg 57%
14:00 +30°C° 0 mm 1 mps 757 mmHg 55%
15:00 +30°C° 0 mm 1 mps 756 mmHg 53%
16:00 +30°C° 0 mm 1 mps 756 mmHg 58%
17:00 +29°C° 0 mm 1 mps 756 mmHg 63%
18:00 +29°C° 0 mm 1 mps 756 mmHg 69%
19:00 +27°C° 0 mm 1 mps 756 mmHg 72%
20:00 +25°C° 0 mm 1 mps 756 mmHg 75%
21:00 +24°C° 0 mm 1 mps 756 mmHg 79%
22:00 +23°C° 0 mm 1 mps 756 mmHg 80%
23:00 +23°C° 0 mm 1 mps 756 mmHg 82%

Day after tomorrow, 22 June, Tuesday

Time Temperature Precipitation Wind Pressure Humidity
00:00 +22°C° 0 mm 1 mps 756 mmHg 83%
01:00 +21°C° 0 mm 1 mps 756 mmHg 84%
02:00 +21°C° 0 mm 1 mps 757 mmHg 84%
03:00 +21°C° 0 mm 1 mps 757 mmHg 85%
04:00 +21°C° 0 mm 1 mps 757 mmHg 83%
05:00 +22°C° 0 mm 1 mps 757 mmHg 82%
06:00 +23°C° 0 mm 1 mps 757 mmHg 80%
07:00 +24°C° 0 mm 1 mps 757 mmHg 76%
08:00 +26°C° 0 mm 1 mps 757 mmHg 71%
09:00 +27°C° 0 mm 1 mps 757 mmHg 66%
10:00 +28°C° 0 mm 1 mps 757 mmHg 61%
11:00 +30°C° 0 mm 1 mps 757 mmHg 57%
12:00 +31°C° 0 mm 1 mps 757 mmHg 52%
13:00 +31°C° 0 mm 1 mps 757 mmHg 51%
14:00 +31°C° 0 mm 1 mps 757 mmHg 49%
15:00 +31°C° 0 mm 1 mps 757 mmHg 47%
16:00 +31°C° 0 mm 1 mps 756 mmHg 53%
17:00 +31°C° 0 mm 1 mps 756 mmHg 58%
18:00 +31°C° 0 mm 1 mps 756 mmHg 63%
19:00 +28°C° 0 mm 1 mps 756 mmHg 66%
20:00 +24°C° 0 mm 0 mps 756 mmHg 69%
21:00 +22°C° 0 mm 0 mps 756 mmHg 72%
22:00 +22°C° 0 mm 0 mps 756 mmHg 73%
23:00 +21°C° 0 mm 0 mps 756 mmHg 74%

23 June, Wednesday

Time Temperature Precipitation Wind Pressure Humidity
00:00 +20°C° 0 mm 0 mps 756 mmHg 76%
01:00 +20°C° 0 mm 0 mps 756 mmHg 77%
02:00 +20°C° 0 mm 0 mps 756 mmHg 78%
03:00 +19°C° 0 mm 0 mps 757 mmHg 80%
04:00 +20°C° 0 mm 0 mps 757 mmHg 79%
05:00 +21°C° 0 mm 0 mps 757 mmHg 78%
06:00 +22°C° 0 mm 0 mps 757 mmHg 76%
07:00 +23°C° 0 mm 0 mps 757 mmHg 72%
08:00 +27°C° 0 mm 1 mps 757 mmHg 68%
09:00 +28°C° 0 mm 1 mps 757 mmHg 64%
10:00 +29°C° 0 mm 1 mps 757 mmHg 60%
11:00 +30°C° 0 mm 1 mps 757 mmHg 56%
12:00 +31°C° 0 mm 1 mps 757 mmHg 52%
13:00 +32°C° 0 mm 1 mps 757 mmHg 50%
14:00 +32°C° 0 mm 1 mps 756 mmHg 49%
15:00 +32°C° 0 mm 1 mps 756 mmHg 47%
16:00 +32°C° 0 mm 1 mps 756 mmHg 52%
17:00 +32°C° 0 mm 1 mps 756 mmHg 57%
18:00 +31°C° 0 mm 1 mps 756 mmHg 62%
19:00 +29°C° 0 mm 1 mps 756 mmHg 65%
20:00 +25°C° 0 mm 0 mps 756 mmHg 68%
21:00 +23°C° 0 mm 0 mps 756 mmHg 71%
22:00 +23°C° 0 mm 0 mps 756 mmHg 72%
23:00 +22°C° 0 mm 0 mps 756 mmHg 73%

24 June, Thursday

Time Temperature Precipitation Wind Pressure Humidity
00:00 +22°C° 0 mm 0 mps 756 mmHg 74%
01:00 +21°C° 0 mm 0 mps 756 mmHg 76%
02:00 +21°C° 0 mm 0 mps 756 mmHg 77%
03:00 +20°C° 0 mm 0 mps 756 mmHg 78%
04:00 +21°C° 0 mm 0 mps 756 mmHg 78%
05:00 +22°C° 0 mm 0 mps 756 mmHg 77%
06:00 +25°C° 0 mm 1 mps 756 mmHg 77%
07:00 +26°C° 0 mm 1 mps 756 mmHg 72%
08:00 +28°C° 0 mm 1 mps 756 mmHg 67%
09:00 +29°C° 0 mm 1 mps 756 mmHg 62%
10:00 +30°C° 0 mm 1 mps 756 mmHg 58%
11:00 +31°C° 0 mm 1 mps 755 mmHg 55%
12:00 +32°C° 0 mm 1 mps 755 mmHg 51%
13:00 +33°C° 0 mm 1 mps 755 mmHg 50%
14:00 +33°C° 0 mm 1 mps 755 mmHg 49%
15:00 +33°C° 0 mm 1 mps 755 mmHg 48%
16:00 +33°C° 0 mm 1 mps 755 mmHg 53%
17:00 +32°C° 0 mm 1 mps 754 mmHg 57%
18:00 +32°C° 0 mm 1 mps 754 mmHg 61%
19:00 +30°C° 0 mm 1 mps 754 mmHg 65%
20:00 +28°C° 0 mm 1 mps 753 mmHg 69%
21:00 +26°C° 0 mm 2 mps 753 mmHg 73%
22:00 +25°C° 0 mm 2 mps 753 mmHg 75%
23:00 +24°C° 0 mm 1 mps 753 mmHg 78%

25 June, Friday

Time Temperature Precipitation Wind Pressure Humidity
00:00 +23°C° 0 mm 1 mps 753 mmHg 81%
01:00 +23°C° 0 mm 1 mps 753 mmHg 83%
02:00 +23°C° 0 mm 1 mps 753 mmHg 85%
03:00 +20°C° 0 mm 0 mps 753 mmHg 87%
04:00 +23°C° 0 mm 1 mps 753 mmHg 86%
05:00 +24°C° 0 mm 1 mps 753 mmHg 85%
06:00 +25°C° 0 mm 1 mps 753 mmHg 84%
07:00 +26°C° 0 mm 1 mps 753 mmHg 79%
08:00 +28°C° 0 mm 1 mps 753 mmHg 74%
09:00 +29°C° 0 mm 1 mps 753 mmHg 69%
10:00 +30°C° 0.1 mm 1 mps 753 mmHg 64%
11:00 +31°C° 0.1 mm 1 mps 752 mmHg 60%
12:00 +32°C° 0.1 mm 1 mps 752 mmHg 56%
13:00 +32°C° 0 mm 1 mps 752 mmHg 54%
14:00 +33°C° 0 mm 1 mps 752 mmHg 52%
15:00 +33°C° 0 mm 1 mps 752 mmHg 51%
16:00 +33°C° 0 mm 1 mps 751 mmHg 55%
17:00 +32°C° 0 mm 1 mps 751 mmHg 59%
18:00 +32°C° 0 mm 1 mps 750 mmHg 63%
19:00 +30°C° 0 mm 1 mps 750 mmHg 68%
20:00 +28°C° 0 mm 1 mps 750 mmHg 74%
21:00 +26°C° 0 mm 2 mps 751 mmHg 79%
22:00 +25°C° 0.1 mm 2 mps 751 mmHg 81%
23:00 +24°C° 0.1 mm 2 mps 751 mmHg 82%
Show more